QPF
0.00 0.00 0.00 0.00 0.00 0.00 0.00 0.00 0.00 0.00 0.00 0.00 0.00 0.00 0.00 0.00 0.00 0.00 0.00 0.00 0.00 0.00 0.00 0.00 0.00 0.01 0.02 0.00 0.00 0.00 0.00 0.00 0.00 0.00 0.00 0.01 0.04 0.04 0.02 0.05 0.05 0.01 0.00 0.00
0.00 0.00 0.00 0.00 0.00 0.00 0.00 0.00 0.00 0.00 0.00 0.00 0.00 0.00 0.00 0.00 0.00 0.00 0.00 0.00 0.00 0.00 0.00 0.00 0.00 0.00 0.00 0.00 0.00 0.00 0.00 0.00 0.00 0.00 0.01 0.05 0.06 0.03 0.02 0.01 0.01 0.01 0.01 0.00
0.01 0.01 0.00 0.00 0.00 0.00 0.00 0.00 0.00 0.00 0.00 0.00 0.00 0.00 0.00 0.00 0.00 0.00 0.00 0.00 0.00 0.00 0.00 0.00 0.00 0.00 0.00 0.00 0.00 0.00 0.00 0.00 0.00 0.00 0.00 0.01 0.01 0.00 0.00 0.01 0.01 0.00 0.00 0.00
0.01 0.00 0.00 0.01 0.00 0.00 0.00 0.00 0.00 0.00 0.00 0.00 0.00 0.05 0.02 0.00 0.00 0.00 0.00 0.00 0.00 0.01 0.00 0.00 0.00 0.00 0.00 0.00 0.00 0.00 0.00 0.00 0.00 0.00 0.00 0.00 0.00 0.00 0.00 0.00 0.00 0.00 0.00 0.00
0.01 0.00 0.00 0.01 0.01 0.00 0.00 0.00 0.00 0.00 0.00 0.00 0.00 0.02 0.01 0.00 0.00 0.00 0.00 0.00 0.00 0.00 0.00 0.00 0.00 0.00 0.00 0.00 0.00 0.00 0.00 0.00 0.00 0.00 0.00 0.00 0.00 0.00 0.00 0.00 0.00 0.00 0.00 0.00
0.00 0.00 0.00 0.01 0.04 0.00 0.00 0.00 0.00 0.01 0.00 0.00 0.00 0.01 0.00 0.00 0.00 0.00 0.00 0.00 0.00 0.00 0.00 0.00 0.00 0.00 0.00 0.00 0.00 0.00 0.00 0.00 0.00 0.00 0.00 0.00 0.00 0.00 0.00 0.00 0.00 0.00 0.00 0.00
0.00 0.00 0.00 0.02 0.04 0.03 0.00 0.00 0.00 0.00 0.00 0.00 0.00 0.00 0.00 0.00 0.00 0.01 0.00 0.00 0.00 0.00 0.00 0.00 0.00 0.00 0.00 0.01 0.01 0.00 0.00 0.00 0.02 0.01 0.01 0.02 0.01 0.00 0.00 0.00 0.00 0.00 0.00 0.00
0.01 0.00 0.01 0.02 0.03 0.03 0.00 0.00 0.00 0.00 0.00 0.00 0.00 0.00 0.00 0.00 0.00 0.00 0.00 0.00 0.00 0.00 0.00 0.00 0.00 0.00 0.02 0.01 0.00 0.00 0.03 0.08 0.11 0.05 0.04 0.02 0.01 0.01 0.00 0.00 0.00 0.00 0.00 0.00
0.01 0.00 0.01 0.01 0.01 0.02 0.00 0.00 0.00 0.00 0.00 0.01 0.01 0.00 0.00 0.00 0.00 0.00 0.00 0.00 0.00 0.00 0.00 0.00 0.00 0.00 0.00 0.01 0.00 0.00 0.00 0.00 0.00 0.00 0.00 0.01 0.03 0.00 0.00 0.00 0.00 0.00 0.00 0.00
0.01 0.00 0.01 0.00 0.00 0.00 0.00 0.00 0.00 0.00 0.00 0.05 0.01 0.01 0.01 0.00 0.00 0.00 0.00 0.00 0.00 0.00 0.00 0.01 0.03 0.01 0.00 0.00 0.00 0.00 0.00 0.00 0.00 0.00 0.00 0.01 0.01 0.00 0.00 0.00 0.00 0.00 0.00 0.00
0.00 0.00 0.00 0.00 0.00 0.00 0.00 0.00 0.00 0.00 0.01 0.05 0.00 0.00 0.00 0.00 0.01 0.02 0.00 0.00 0.00 0.00 0.00 0.01 0.01 0.01 0.01 0.00 0.00 0.01 0.00 0.00 0.00 0.00 0.00 0.01 0.01 0.02 0.03 0.03 0.03 0.00 0.01 0.01
0.00 0.00 0.00 0.00 0.00 0.00 0.00 0.00 0.00 0.00 0.02 0.06 0.00 0.00 0.00 0.00 0.02 0.08 0.02 0.00 0.00 0.01 0.04 0.06 0.01 0.00 0.00 0.00 0.00 0.00 0.01 0.04 0.03 0.02 0.02 0.02 0.02 0.06 0.04 0.07 0.08 0.05 0.09 0.05
0.00 0.00 0.00 0.00 0.00 0.00 0.00 0.00 0.00 0.00 0.01 0.01 0.00 0.00 0.00 0.00 0.00 0.03 0.03 0.01 0.02 0.04 0.06 0.01 0.00 0.00 0.00 0.00 0.01 0.00 0.00 0.00 0.01 0.01 0.01 0.01 0.04 0.03 0.04 0.06 0.14 0.18 0.21 0.09
0.00 0.00 0.00 0.00 0.00 0.00 0.00 0.00 0.00 0.00 0.00 0.00 0.00 0.00 0.00 0.00 0.00 0.00 0.01 0.00 0.00 0.00 0.00 0.00 0.00 0.00 0.00 0.00 0.00 0.01 0.02 0.00 0.00 0.01 0.02 0.02 0.01 0.03 0.08 0.07 0.12 0.19 0.18 0.12
0.00 0.00 0.00 0.00 0.00 0.00 0.00 0.00 0.00 0.00 0.00 0.00 0.00 0.00 0.00 0.00 0.00 0.00 0.00 0.00 0.00 0.00 0.00 0.00 0.00 0.00 0.00 0.00 0.00 0.03 0.05 0.06 0.05 0.05 0.07 0.09 0.08 0.09 0.10 0.09 0.14 0.21 0.18 0.11
0.00 0.00 0.00 0.00 0.00 0.00 0.00 0.00 0.00 0.00 0.00 0.00 0.00 0.00 0.00 0.00 0.00 0.00 0.00 0.00 0.00 0.00 0.00 0.00 0.00 0.00 0.00 0.00 0.02 0.04 0.04 0.05 0.06 0.08 0.07 0.10 0.09 0.05 0.07 0.11 0.13 0.16 0.19 0.19
0.00 0.00 0.00 0.00 0.00 0.00 0.00 0.00 0.00 0.00 0.00 0.00 0.00 0.00 0.00 0.00 0.00 0.00 0.00 0.00 0.00 0.00 0.00 0.00 0.00 0.00 0.00 0.00 0.02 0.01 0.00 0.00 0.00 0.01 0.01 0.01 0.02 0.08 0.10 0.11 0.12 0.09 0.09 0.11
0.00 0.00 0.00 0.00 0.00 0.00 0.00 0.00 0.00 0.00 0.00 0.00 0.00 0.00 0.00 0.00 0.00 0.00 0.00 0.00 0.00 0.00 0.00 0.00 0.00 0.00 0.00 0.01 0.02 0.00 0.00 0.00 0.00 0.00 0.00 0.01 0.01 0.01 0.02 0.05 0.06 0.06 0.08 0.07
0.00 0.00 0.00 0.00 0.00 0.00 0.00 0.00 0.00 0.00 0.00 0.00 0.00 0.00 0.00 0.00 0.01 0.04 0.01 0.00 0.00 0.00 0.00 0.00 0.00 0.00 0.01 0.01 0.00 0.00 0.00 0.00 0.00 0.00 0.00 0.00 0.00 0.00 0.00 0.01 0.02 0.04 0.05 0.05
0.00 0.00 0.00 0.00 0.00 0.00 0.00 0.00 0.00 0.00 0.00 0.00 0.00 0.00 0.00 0.00 0.00 0.01 0.01 0.00 0.00 0.00 0.00 0.00 0.00 0.01 0.01 0.00 0.00 0.00 0.00 0.00 0.00 0.00 0.00 0.00 0.00 0.00 0.00 0.00 0.00 0.01 0.01 0.02
0.00 0.00 0.00 0.00 0.00 0.00 0.00 0.00 0.00 0.00 0.00 0.00 0.00 0.00 0.00 0.00 0.01 0.01 0.00 0.00 0.00 0.00 0.00 0.00 0.00 0.00 0.00 0.00 0.00 0.00 0.00 0.00 0.00 0.00 0.00 0.00 0.00 0.00 0.00 0.00 0.00 0.00 0.00 0.00
0.00 0.00 0.00 0.00 0.00 0.00 0.00 0.00 0.00 0.00 0.00 0.00 0.00 0.00 0.00 0.00 0.01 0.01 0.00 0.00 0.00 0.00 0.00 0.00 0.00 0.01 0.00 0.00 0.00 0.00 0.00 0.00 0.00 0.00 0.00 0.00 0.00 0.00 0.00 0.00 0.00 0.00 0.00 0.00
0.00 0.00 0.00 0.00 0.00 0.00 0.00 0.00 0.00 0.00 0.00 0.00 0.00 0.00 0.00 0.00 0.00 0.00 0.00 0.00 0.00 0.00 0.00 0.00 0.00 0.00 0.00 0.00 0.00 0.00 0.00 0.00 0.00 0.00 0.00 0.00 0.00 0.00 0.00 0.00 0.00 0.00 0.00 0.00
0.00 0.00 0.00 0.00 0.00 0.00 0.00 0.00 0.00 0.00 0.00 0.00 0.00 0.00 0.00 0.00 0.00 0.00 0.00 0.00 0.00 0.00 0.00 0.00 0.00 0.00 0.00 0.00 0.00 0.00 0.00 0.00 0.00 0.00 0.00 0.00 0.00 0.00 0.00 0.00 0.00 0.00 0.00 0.00
0.00 0.00 0.00 0.00 0.00 0.00 0.00 0.00 0.00 0.00 0.00 0.00 0.00 0.00 0.00 0.00 0.00 0.00 0.00 0.00 0.00 0.00 0.00 0.00 0.00 0.00 0.00 0.00 0.00 0.00 0.00 0.00 0.00 0.00 0.00 0.00 0.00 0.00 0.00 0.00 0.00 0.00 0.00 0.00
0.00 0.00 0.00 0.00 0.00 0.00 0.00 0.00 0.00 0.00 0.00 0.00 0.00 0.00 0.00 0.00 0.00 0.00 0.00 0.00 0.00 0.00 0.00 0.00 0.00 0.00 0.00 0.00 0.00 0.00 0.00 0.00 0.00 0.00 0.00 0.00 0.00 0.00 0.00 0.00 0.00 0.00 0.00 0.00
0.00 0.00 0.00 0.00 0.00 0.00 0.00 0.00 0.00 0.00 0.00 0.00 0.00 0.00 0.00 0.00 0.00 0.00 0.00 0.00 0.00 0.00 0.00 0.00 0.00 0.00 0.00 0.00 0.00 0.00 0.00 0.00 0.00 0.00 0.00 0.00 0.00 0.00 0.00 0.00 0.00 0.00 0.00 0.00
MSLP
1025.96 1025.27 1024.55 1023.72 1022.78 1021.85 1021.00 1021.65 1020.73 1018.74 1017.67 1018.67 1020.03 1020.35 1019.93 1019.47 1018.88 1018.39 1018.28 1018.26 1018.44 1018.66 1018.71 1018.48 1018.28 1018.40 1018.28 1017.70 1017.26 1017.18 1017.17 1017.53 1017.57 1016.75 1016.54 1016.62 1017.03 1017.39 1016.51 1015.79 1015.97 1015.12 1014.51 1013.80
1026.18 1025.53 1024.80 1024.03 1023.13 1022.36 1022.70 1022.92 1022.25 1020.03 1019.55 1021.21 1021.66 1021.27 1020.73 1020.06 1019.61 1019.13 1019.02 1018.95 1019.01 1019.21 1019.40 1019.49 1019.10 1018.69 1018.40 1018.05 1017.84 1017.85 1017.87 1018.54 1018.78 1018.04 1018.18 1018.16 1018.51 1018.51 1018.45 1018.06 1018.14 1017.06 1016.33 1013.83
1026.25 1025.63 1024.96 1024.27 1023.66 1022.78 1023.00 1023.58 1023.47 1022.46 1022.29 1022.83 1022.94 1022.56 1021.84 1021.04 1020.11 1019.76 1019.68 1019.66 1019.53 1019.88 1019.88 1019.87 1019.80 1019.28 1018.69 1018.42 1018.39 1018.11 1018.35 1019.16 1019.60 1019.76 1019.48 1019.73 1019.56 1019.67 1019.74 1019.66 1019.67 1018.56 1017.27 1015.79
1026.42 1025.92 1025.27 1024.67 1024.00 1023.24 1023.43 1024.50 1025.00 1024.90 1024.39 1023.77 1023.92 1023.19 1022.84 1021.97 1021.35 1020.77 1020.39 1020.16 1020.33 1020.49 1020.53 1020.36 1020.01 1019.73 1019.47 1018.95 1018.74 1018.91 1019.38 1020.15 1020.20 1020.27 1020.16 1020.08 1020.15 1020.17 1020.03 1019.89 1020.00 1019.28 1016.92 1016.67
1026.52 1025.98 1025.38 1024.82 1024.37 1023.88 1024.70 1025.51 1025.74 1025.14 1025.07 1024.86 1024.42 1024.07 1023.56 1022.88 1022.21 1021.66 1021.13 1021.01 1020.63 1020.51 1020.66 1020.44 1020.31 1020.13 1020.15 1019.74 1019.54 1019.86 1020.39 1020.91 1020.83 1020.69 1020.31 1020.62 1020.59 1020.78 1020.82 1020.46 1020.00 1019.47 1018.44 1016.11
1026.69 1026.18 1025.61 1025.11 1024.69 1024.56 1025.36 1025.55 1025.56 1025.70 1025.34 1025.26 1025.18 1024.94 1024.33 1023.49 1022.94 1021.92 1021.48 1021.25 1020.85 1020.38 1020.30 1020.03 1019.76 1019.74 1019.96 1020.20 1020.63 1021.06 1021.47 1021.62 1021.76 1021.32 1020.98 1021.26 1022.26 1023.43 1022.62 1022.04 1021.16 1020.44 1019.45 1017.77
1026.71 1026.12 1025.49 1025.13 1024.83 1024.94 1025.41 1025.52 1025.54 1025.89 1026.02 1025.83 1025.63 1025.20 1024.75 1024.15 1023.43 1022.84 1021.94 1021.52 1021.11 1020.50 1020.02 1019.71 1019.48 1019.88 1020.48 1021.24 1021.34 1021.56 1021.98 1022.43 1022.43 1022.27 1022.08 1022.90 1024.71 1024.87 1023.96 1023.08 1021.23 1021.33 1020.64 1019.87
1026.66 1025.94 1025.37 1025.00 1024.60 1024.63 1025.11 1025.48 1025.69 1025.95 1026.28 1026.29 1025.68 1025.45 1025.42 1024.64 1024.00 1023.33 1022.49 1021.69 1021.27 1020.74 1020.45 1020.42 1020.51 1020.62 1021.48 1022.33 1022.67 1022.73 1023.18 1023.10 1023.07 1023.30 1023.38 1024.27 1025.14 1025.75 1025.78 1025.04 1022.21 1022.15 1022.00 1020.90
1026.75 1026.25 1025.67 1025.14 1024.69 1024.44 1025.09 1025.45 1025.54 1025.80 1026.69 1026.65 1026.19 1026.04 1025.93 1025.63 1024.93 1024.03 1022.90 1022.06 1021.30 1020.86 1021.15 1021.85 1022.43 1022.54 1022.90 1023.51 1023.75 1024.20 1024.73 1024.72 1024.91 1024.94 1025.02 1025.26 1027.09 1026.74 1025.58 1024.86 1023.54 1022.79 1022.57 1021.18
1026.80 1026.25 1025.79 1025.39 1024.99 1024.78 1025.26 1025.66 1025.62 1025.75 1026.89 1027.41 1026.79 1026.90 1026.72 1026.38 1025.87 1025.56 1024.47 1023.84 1022.60 1021.91 1022.47 1022.96 1023.64 1024.60 1025.45 1026.82 1027.41 1027.32 1026.70 1026.93 1027.21 1026.91 1026.45 1026.38 1027.01 1026.57 1024.75 1025.11 1024.82 1023.48 1022.92 1021.50
1026.89 1026.37 1026.00 1025.59 1025.25 1025.07 1025.48 1026.12 1025.87 1026.02 1027.25 1027.83 1027.35 1027.14 1026.95 1026.46 1026.22 1025.87 1025.00 1024.50 1024.14 1023.56 1023.60 1024.21 1025.50 1026.53 1027.80 1028.83 1029.67 1029.74 1029.75 1029.57 1029.19 1028.65 1028.02 1027.84 1027.88 1027.22 1027.73 1027.53 1025.70 1024.49 1022.81 1020.92
1026.99 1026.53 1026.16 1025.82 1025.60 1025.48 1025.70 1026.48 1026.30 1026.25 1027.35 1028.14 1027.71 1026.99 1026.57 1026.33 1025.79 1025.70 1025.42 1025.49 1025.37 1024.91 1024.66 1025.67 1026.72 1028.06 1029.17 1030.00 1030.83 1030.87 1031.07 1031.37 1030.98 1030.68 1030.26 1029.86 1029.41 1028.83 1028.15 1027.22 1025.78 1023.92 1022.06 1019.18
1027.00 1026.58 1026.34 1026.10 1025.98 1025.89 1026.20 1026.78 1026.93 1026.92 1027.80 1028.35 1027.49 1026.93 1026.43 1025.76 1025.15 1024.87 1025.48 1025.58 1025.46 1025.38 1025.34 1026.37 1028.16 1029.42 1030.03 1031.16 1032.39 1032.27 1032.09 1031.84 1031.49 1031.02 1030.55 1030.20 1029.47 1028.70 1027.91 1026.75 1025.30 1023.60 1021.63 1018.49
1027.16 1026.70 1026.48 1026.33 1026.27 1026.31 1026.51 1027.07 1027.18 1027.25 1027.67 1028.70 1028.76 1027.57 1026.87 1026.20 1025.31 1024.63 1025.33 1025.71 1025.65 1025.91 1026.16 1027.54 1029.23 1030.31 1031.44 1032.49 1033.37 1033.40 1033.76 1033.09 1032.52 1031.60 1030.97 1030.15 1029.03 1028.76 1027.84 1026.45 1025.04 1023.36 1021.45 1019.45
1027.09 1026.69 1026.58 1026.43 1026.46 1026.52 1026.92 1027.24 1027.42 1027.34 1027.92 1028.77 1029.13 1028.41 1027.71 1027.03 1026.52 1026.32 1026.33 1026.35 1026.84 1027.51 1028.45 1030.09 1031.15 1031.56 1032.15 1032.88 1033.44 1034.36 1034.81 1034.52 1034.00 1033.11 1032.60 1032.18 1030.79 1029.60 1028.44 1026.97 1025.51 1024.02 1022.44 1020.44
1027.09 1026.75 1026.67 1026.45 1026.31 1026.61 1027.10 1027.51 1027.57 1027.29 1027.48 1028.59 1029.61 1029.25 1028.87 1028.28 1027.80 1027.64 1027.77 1027.88 1028.36 1029.27 1030.71 1031.79 1032.23 1032.19 1032.50 1034.11 1034.95 1035.78 1035.55 1035.32 1034.94 1034.40 1033.16 1032.31 1031.36 1030.40 1029.08 1027.70 1026.35 1024.93 1023.52 1022.06
1027.03 1026.98 1026.95 1026.90 1026.74 1027.24 1027.59 1028.47 1028.17 1027.39 1027.81 1029.15 1030.43 1030.35 1029.82 1029.42 1029.07 1028.94 1029.13 1029.24 1030.25 1031.00 1031.91 1033.11 1033.63 1033.52 1033.58 1035.22 1036.11 1035.99 1035.68 1035.28 1034.92 1034.35 1033.19 1032.19 1031.05 1030.54 1029.77 1028.59 1027.26 1026.00 1024.72 1023.44
1027.07 1027.23 1027.27 1027.28 1027.38 1027.64 1028.11 1028.51 1027.72 1027.61 1028.68 1030.16 1032.24 1032.43 1031.28 1030.72 1030.53 1030.31 1030.09 1030.91 1031.35 1032.30 1033.34 1033.97 1034.32 1034.49 1035.20 1036.46 1036.82 1036.32 1035.69 1035.12 1034.55 1034.32 1033.75 1033.18 1032.30 1031.28 1030.27 1029.21 1027.95 1026.62 1025.70 1024.94
1027.13 1027.41 1027.66 1028.03 1028.29 1028.72 1028.85 1028.35 1028.38 1028.61 1029.99 1032.75 1034.17 1034.28 1033.20 1031.91 1031.51 1031.25 1031.16 1031.57 1033.01 1033.46 1034.12 1034.57 1034.89 1036.07 1037.06 1037.54 1037.31 1036.76 1036.15 1035.86 1035.13 1034.31 1033.81 1033.11 1032.45 1031.87 1030.91 1029.91 1028.88 1028.01 1027.19 1026.36
1027.18 1028.04 1028.53 1029.12 1029.26 1028.80 1028.69 1028.95 1029.72 1031.17 1032.64 1033.92 1035.49 1035.14 1034.41 1033.57 1032.51 1032.17 1032.48 1032.73 1033.95 1034.81 1035.03 1034.98 1036.26 1037.43 1037.75 1037.76 1037.55 1037.09 1036.47 1035.81 1035.01 1034.06 1033.03 1032.83 1032.56 1032.06 1031.51 1030.81 1030.12 1029.36 1028.54 1027.71
1028.11 1029.01 1029.58 1029.65 1029.17 1029.52 1030.86 1032.43 1033.63 1034.95 1036.07 1036.57 1036.50 1036.29 1035.59 1034.02 1033.84 1033.62 1033.66 1034.44 1035.08 1036.03 1035.96 1036.09 1037.40 1038.23 1038.15 1037.75 1037.67 1037.02 1036.43 1035.92 1035.44 1035.02 1034.41 1033.84 1033.31 1032.68 1031.88 1031.20 1030.70 1030.16 1029.55 1028.71
1029.35 1029.60 1029.97 1030.31 1031.53 1032.46 1034.14 1036.25 1036.59 1037.35 1038.15 1037.63 1037.24 1036.78 1036.11 1035.09 1034.35 1034.72 1035.07 1035.83 1036.67 1037.36 1037.03 1037.62 1038.83 1038.79 1038.23 1037.69 1037.31 1036.65 1036.14 1035.72 1035.27 1034.81 1034.31 1033.76 1033.23 1032.79 1032.37 1031.91 1031.38 1030.96 1030.30 1029.49
1029.58 1030.42 1032.02 1033.34 1035.24 1036.59 1037.97 1039.18 1039.24 1038.95 1038.68 1038.25 1037.91 1037.40 1036.57 1035.53 1035.30 1036.12 1036.92 1037.98 1038.53 1038.26 1038.85 1039.75 1039.42 1038.71 1038.17 1037.65 1037.15 1036.35 1035.83 1035.39 1034.97 1034.55 1034.21 1033.75 1033.27 1032.81 1032.48 1032.10 1031.76 1031.36 1030.78 1030.24
1031.84 1033.65 1035.78 1036.90 1038.35 1039.01 1039.48 1039.90 1039.66 1038.92 1038.65 1038.43 1038.37 1038.01 1037.42 1036.75 1036.71 1037.39 1038.57 1038.90 1039.05 1040.05 1040.37 1040.32 1039.44 1038.52 1037.98 1037.47 1036.80 1036.34 1035.83 1035.37 1034.95 1034.44 1033.93 1033.54 1033.26 1032.94 1032.56 1032.14 1031.82 1031.46 1030.96 1030.32
1034.22 1035.74 1038.10 1038.67 1038.93 1039.23 1039.35 1039.24 1039.22 1038.59 1038.43 1038.46 1038.40 1038.27 1038.32 1037.98 1038.33 1038.63 1039.37 1039.87 1040.63 1040.83 1040.50 1039.74 1038.66 1037.81 1037.36 1036.82 1036.17 1035.79 1035.43 1035.06 1034.77 1034.45 1034.09 1033.61 1033.17 1032.80 1032.44 1032.07 1031.71 1031.30 1030.97 1030.55
1036.05 1037.47 1038.73 1038.94 1039.27 1039.58 1039.41 1039.29 1039.01 1038.34 1038.31 1038.29 1038.54 1039.07 1039.46 1039.73 1039.76 1039.87 1040.70 1040.87 1040.63 1040.14 1039.36 1038.34 1037.62 1037.19 1036.79 1036.29 1035.74 1035.33 1035.00 1034.70 1034.39 1034.12 1033.80 1033.47 1033.25 1032.94 1032.61 1032.13 1031.67 1031.20 1030.74 1030.29
1038.22 1038.90 1038.50 1038.85 1038.98 1039.24 1039.01 1038.78 1038.46 1038.16 1038.43 1038.89 1039.38 1040.10 1040.16 1040.17 1040.45 1040.53 1040.26 1039.73 1039.52 1038.56 1037.92 1037.29 1036.91 1036.57 1036.18 1035.71 1035.31 1034.91 1034.55 1034.23 1033.96 1033.74 1033.41 1033.14 1032.78 1032.49 1032.22 1031.87 1031.42 1031.18 1030.89 1030.59
Thickness
5461 5452 5444 5436 5427 5419 5410 5384 5373 5377 5369 5341 5301 5300 5307 5313 5306 5309 5306 5308 5306 5302 5303 5310 5322 5315 5313 5332 5337 5340 5350 5342 5343 5370 5378 5380 5371 5367 5385 5401 5417 5413 5424 5435
5445 5437 5426 5415 5405 5394 5377 5358 5335 5338 5330 5295 5283 5284 5289 5291 5289 5290 5291 5288 5288 5282 5281 5280 5289 5299 5304 5314 5317 5317 5330 5314 5300 5353 5353 5346 5343 5351 5358 5368 5367 5387 5400 5450
5433 5421 5408 5396 5383 5372 5352 5330 5307 5302 5284 5271 5263 5258 5271 5274 5282 5281 5280 5276 5277 5270 5268 5273 5259 5278 5289 5291 5297 5312 5311 5301 5302 5291 5321 5327 5329 5338 5346 5340 5331 5336 5361 5391
5417 5403 5391 5379 5365 5351 5330 5298 5276 5270 5260 5269 5252 5265 5263 5262 5261 5267 5266 5269 5264 5259 5244 5257 5260 5269 5269 5278 5285 5284 5276 5257 5286 5287 5295 5304 5313 5322 5333 5329 5329 5331 5373 5373
5403 5390 5376 5362 5347 5329 5303 5281 5267 5263 5249 5251 5246 5247 5248 5250 5252 5254 5254 5252 5256 5253 5244 5253 5241 5255 5256 5260 5268 5267 5260 5242 5269 5266 5287 5289 5299 5307 5304 5316 5327 5336 5349 5375
5390 5375 5361 5345 5326 5311 5285 5273 5264 5255 5251 5247 5229 5243 5241 5249 5247 5255 5257 5253 5253 5255 5259 5258 5257 5257 5257 5259 5257 5248 5245 5232 5247 5240 5273 5275 5258 5241 5260 5270 5287 5302 5320 5360
5378 5364 5349 5331 5313 5297 5280 5268 5262 5251 5243 5242 5246 5245 5244 5243 5248 5246 5255 5252 5251 5260 5261 5261 5264 5258 5253 5247 5249 5253 5247 5239 5258 5230 5265 5239 5217 5220 5237 5245 5279 5276 5294 5311
5370 5355 5339 5320 5305 5290 5278 5265 5258 5249 5245 5243 5248 5245 5238 5237 5239 5242 5251 5257 5256 5255 5260 5252 5252 5268 5258 5243 5238 5241 5238 5246 5256 5232 5255 5233 5216 5210 5209 5216 5246 5252 5251 5268
5360 5342 5325 5311 5299 5287 5275 5263 5257 5251 5237 5238 5241 5238 5232 5231 5221 5231 5246 5251 5253 5262 5260 5236 5222 5241 5242 5243 5237 5233 5227 5215 5198 5209 5212 5239 5196 5200 5216 5220 5228 5237 5235 5248
5351 5333 5316 5302 5292 5282 5272 5261 5256 5251 5224 5232 5233 5225 5225 5221 5218 5212 5224 5231 5245 5253 5237 5243 5236 5235 5222 5189 5187 5192 5200 5191 5184 5198 5189 5206 5196 5196 5219 5208 5218 5224 5227 5236
5342 5325 5309 5297 5286 5277 5268 5257 5255 5249 5231 5226 5231 5229 5215 5220 5217 5215 5226 5219 5226 5227 5220 5227 5222 5213 5194 5183 5170 5169 5161 5151 5172 5184 5187 5175 5187 5189 5178 5185 5200 5209 5221 5234
5334 5319 5305 5293 5282 5272 5265 5254 5252 5248 5236 5228 5229 5231 5229 5225 5227 5224 5225 5220 5222 5224 5229 5222 5211 5203 5187 5166 5156 5168 5158 5158 5157 5164 5169 5173 5172 5174 5177 5184 5193 5206 5219 5239
5329 5315 5301 5291 5280 5270 5262 5254 5248 5244 5230 5222 5227 5230 5233 5233 5235 5236 5224 5225 5230 5227 5231 5213 5188 5185 5193 5164 5158 5158 5160 5160 5159 5161 5170 5167 5168 5173 5178 5185 5196 5206 5216 5241
5325 5312 5299 5288 5278 5269 5261 5251 5247 5244 5236 5214 5220 5230 5231 5232 5237 5241 5234 5227 5229 5225 5222 5207 5193 5188 5178 5160 5151 5155 5149 5155 5153 5161 5168 5167 5179 5174 5178 5188 5194 5207 5212 5228
5324 5310 5298 5287 5277 5268 5261 5253 5246 5243 5232 5226 5218 5225 5228 5229 5231 5231 5229 5227 5224 5221 5213 5193 5177 5171 5174 5155 5161 5149 5144 5142 5142 5148 5150 5150 5160 5167 5174 5183 5192 5202 5207 5222
5322 5309 5297 5288 5279 5269 5262 5251 5246 5243 5239 5221 5210 5223 5222 5223 5225 5224 5220 5219 5216 5196 5187 5167 5170 5173 5174 5157 5154 5140 5138 5137 5139 5143 5148 5153 5158 5163 5171 5179 5188 5197 5203 5212
5320 5306 5294 5285 5277 5268 5253 5243 5239 5241 5238 5219 5207 5218 5221 5219 5220 5216 5213 5208 5196 5192 5175 5170 5167 5170 5169 5154 5143 5144 5144 5145 5145 5147 5154 5162 5170 5169 5170 5176 5184 5194 5200 5208
5319 5303 5292 5282 5273 5264 5251 5245 5244 5243 5232 5217 5175 5191 5213 5212 5205 5208 5211 5202 5199 5190 5167 5173 5168 5171 5163 5150 5147 5148 5150 5153 5153 5154 5157 5157 5162 5167 5172 5178 5184 5193 5199 5203
5317 5302 5289 5281 5269 5256 5250 5245 5241 5238 5226 5184 5176 5183 5183 5205 5211 5211 5208 5197 5187 5184 5170 5169 5179 5156 5145 5147 5145 5149 5151 5149 5153 5159 5160 5163 5166 5168 5173 5179 5185 5189 5194 5199
5316 5300 5286 5266 5266 5260 5255 5245 5233 5216 5202 5191 5175 5183 5171 5187 5198 5208 5209 5191 5177 5161 5173 5178 5151 5148 5149 5143 5143 5145 5150 5154 5159 5162 5167 5168 5169 5173 5175 5178 5182 5186 5190 5196
5312 5291 5279 5276 5271 5260 5239 5213 5204 5189 5171 5174 5167 5166 5167 5190 5181 5189 5186 5175 5177 5142 5172 5164 5145 5138 5144 5144 5139 5144 5150 5153 5155 5157 5161 5164 5166 5169 5173 5177 5180 5183 5186 5192
5302 5291 5283 5275 5255 5237 5219 5178 5193 5182 5176 5176 5168 5171 5172 5179 5186 5183 5176 5160 5155 5156 5165 5144 5132 5143 5144 5138 5144 5152 5153 5155 5156 5158 5159 5162 5165 5167 5170 5171 5174 5176 5181 5188
5302 5285 5264 5254 5229 5213 5185 5165 5172 5165 5170 5167 5174 5168 5175 5181 5180 5160 5146 5141 5139 5150 5121 5126 5127 5143 5142 5138 5143 5151 5153 5155 5156 5157 5157 5159 5162 5164 5165 5168 5169 5171 5175 5179
5277 5248 5234 5216 5191 5193 5190 5185 5180 5189 5179 5186 5173 5170 5172 5178 5173 5151 5146 5147 5146 5106 5107 5121 5117 5133 5139 5139 5142 5142 5146 5147 5148 5151 5154 5155 5156 5158 5159 5162 5163 5165 5169 5176
5253 5244 5211 5211 5222 5205 5198 5188 5188 5194 5188 5182 5177 5178 5176 5171 5161 5166 5145 5136 5109 5126 5116 5116 5127 5138 5130 5139 5145 5142 5140 5141 5138 5138 5139 5142 5146 5148 5151 5154 5157 5159 5161 5164
5245 5232 5220 5224 5209 5199 5195 5188 5191 5199 5193 5193 5191 5168 5154 5154 5154 5147 5126 5118 5112 5125 5121 5137 5137 5143 5138 5141 5142 5140 5138 5134 5133 5133 5133 5133 5132 5132 5133 5136 5141 5146 5152 5156
5228 5221 5234 5222 5209 5207 5204 5208 5206 5204 5194 5184 5166 5164 5161 5150 5128 5141 5140 5126 5133 5138 5145 5149 5148 5146 5143 5140 5138 5137 5135 5133 5130 5128 5127 5125 5125 5123 5124 5124 5128 5128 5131 5133